CFG6PJ LSZH-EDDF

Flight info

Callsign CFG6PJ
Flight time 0h 42m
Altitude 22000
Route DEGES Z1 SUDEN T164 KOVAN T163 SPESA SPESA4C
Aircraft E190/M-SDE3GILORVW/S

Departure

Time 2026-05-08 07:10
Airport Zürich Airport (LSZH)

Arrival

Time 2026-05-08 07:53
Airport Frankfurt Main Airport (EDDF)
Time Latitude Longitude Altitude Speed Heading
2026-05-08 06:53 47.44449 8.56145 1382 ft 0 kts 245°
2026-05-08 07:02 47.44448 8.56142 1382 ft 0 kts 245°
2026-05-08 07:02 47.44445 8.56134 1382 ft 1 kts 245°
2026-05-08 07:03 47.44440 8.56118 1382 ft 2 kts 245°
2026-05-08 07:03 47.44432 8.56091 1382 ft 3 kts 249°
2026-05-08 07:03 47.44431 8.56050 1382 ft 4 kts 289°
2026-05-08 07:03 47.44452 8.56021 1382 ft 4 kts 332°
2026-05-08 07:04 47.44487 8.55994 1382 ft 6 kts 335°
2026-05-08 07:04 47.44529 8.55964 1382 ft 7 kts 335°
2026-05-08 07:04 47.44577 8.55932 1382 ft 8 kts 335°
2026-05-08 07:04 47.44636 8.55892 1382 ft 11 kts 335°
2026-05-08 07:05 47.44734 8.55825 1382 ft 19 kts 336°
2026-05-08 07:05 47.44871 8.55735 1382 ft 16 kts 335°
2026-05-08 07:05 47.44941 8.55712 1382 ft 10 kts
2026-05-08 07:05 47.45010 8.55725 1382 ft 7 kts 357°
2026-05-08 07:06 47.45075 8.55689 1382 ft 13 kts 335°
2026-05-08 07:06 47.45179 8.55617 1382 ft 19 kts 336°
2026-05-08 07:06 47.45308 8.55554 1382 ft 19 kts 339°
2026-05-08 07:06 47.45433 8.55471 1382 ft 21 kts 335°
2026-05-08 07:07 47.45587 8.55363 1382 ft 24 kts 336°
2026-05-08 07:07 47.45658 8.55345 1382 ft 8 kts 33°
2026-05-08 07:07 47.45668 8.55436 1382 ft 11 kts 96°
2026-05-08 07:07 47.45658 8.55587 1382 ft 18 kts 96°
2026-05-08 07:08 47.45642 8.55801 1382 ft 24 kts 96°
2026-05-08 07:08 47.45623 8.56078 1382 ft 29 kts 96°
2026-05-08 07:08 47.45601 8.56376 1382 ft 29 kts 96°
2026-05-08 07:08 47.45581 8.56671 1382 ft 28 kts 96°
2026-05-08 07:09 47.45565 8.56886 1382 ft 18 kts 96°
2026-05-08 07:09 47.45574 8.56983 1382 ft 5 kts 47°
2026-05-08 07:09 47.45609 8.57010 1384 ft 6 kts
2026-05-08 07:09 47.45658 8.56996 1386 ft 9 kts 300°
2026-05-08 07:10 47.45673 8.56838 1384 ft 43 kts 277°
2026-05-08 07:10 47.45739 8.55919 1383 ft 133 kts 276°
2026-05-08 07:10 47.45861 8.54282 1682 ft 179 kts 277°
2026-05-08 07:10 47.46000 8.52384 2641 ft 191 kts 276°
2026-05-08 07:11 47.46131 8.50477 3547 ft 199 kts 276°
2026-05-08 07:11 47.45890 8.48373 4140 ft 224 kts 238°
2026-05-08 07:11 47.44943 8.46505 5039 ft 236 kts 232°
2026-05-08 07:11 47.43982 8.44588 6171 ft 236 kts 245°
2026-05-08 07:12 47.43338 8.42438 7326 ft 232 kts 232°
2026-05-08 07:12 47.42044 8.41153 8337 ft 235 kts 195°
2026-05-08 07:12 47.40348 8.41274 8808 ft 262 kts 158°
2026-05-08 07:12 47.38879 8.43028 9349 ft 286 kts 123°
2026-05-08 07:13 47.38302 8.45830 10129 ft 298 kts 90°
2026-05-08 07:13 47.38813 8.48736 11006 ft 304 kts 64°
2026-05-08 07:13 47.39577 8.51656 11816 ft 313 kts 73°
2026-05-08 07:13 47.40263 8.54774 12572 ft 324 kts 72°
2026-05-08 07:14 47.40997 8.57962 13359 ft 334 kts 71°
2026-05-08 07:14 47.41757 8.61204 14223 ft 339 kts 71°
2026-05-08 07:14 47.42530 8.64483 15133 ft 343 kts 71°
2026-05-08 07:14 47.43310 8.67785 16021 ft 347 kts 71°
2026-05-08 07:15 47.44107 8.71161 16872 ft 351 kts 71°
2026-05-08 07:15 47.44911 8.74568 17697 ft 356 kts 71°
2026-05-08 07:15 47.45731 8.78048 18519 ft 361 kts 71°
2026-05-08 07:15 47.46549 8.81523 19311 ft 366 kts 71°
2026-05-08 07:16 47.47421 8.85049 20066 ft 371 kts 60°
2026-05-08 07:16 47.49103 8.87910 20776 ft 375 kts 34°
2026-05-08 07:16 47.51488 8.89464 21484 ft 376 kts
2026-05-08 07:16 47.54059 8.89416 22026 ft 369 kts 345°
2026-05-08 07:17 47.56513 8.88089 22087 ft 390 kts 335°
2026-05-08 07:17 47.59035 8.86506 22071 ft 399 kts 335°
2026-05-08 07:17 47.61745 8.85519 22077 ft 403 kts 354°
2026-05-08 07:17 47.64563 8.85549 22078 ft 404 kts
2026-05-08 07:18 47.67341 8.85905 22070 ft 404 kts
2026-05-08 07:18 47.70144 8.86367 22067 ft 404 kts
2026-05-08 07:18 47.72906 8.86856 22064 ft 404 kts
2026-05-08 07:18 47.75709 8.87364 22061 ft 404 kts
2026-05-08 07:19 47.78478 8.87870 22073 ft 404 kts
2026-05-08 07:19 47.81276 8.88382 22075 ft 404 kts
2026-05-08 07:19 47.84069 8.88895 22076 ft 404 kts
2026-05-08 07:19 47.86854 8.89407 22065 ft 404 kts
2026-05-08 07:20 47.89621 8.89916 22068 ft 404 kts
2026-05-08 07:20 47.92393 8.90426 22074 ft 404 kts
2026-05-08 07:20 47.95192 8.90942 22062 ft 404 kts
2026-05-08 07:20 47.97982 8.91457 22059 ft 403 kts
2026-05-08 07:21 48.00775 8.91973 22058 ft 403 kts
2026-05-08 07:21 48.03529 8.92483 22058 ft 403 kts
2026-05-08 07:21 48.06317 8.92999 22055 ft 403 kts
2026-05-08 07:21 48.09082 8.93512 22051 ft 402 kts
2026-05-08 07:22 48.11856 8.94027 22047 ft 402 kts
2026-05-08 07:22 48.14630 8.94542 22041 ft 402 kts
2026-05-08 07:22 48.17411 8.95059 22040 ft 402 kts
2026-05-08 07:22 48.20193 8.95577 22039 ft 402 kts
2026-05-08 07:23 48.22971 8.96095 22037 ft 402 kts
2026-05-08 07:23 48.25751 8.96614 22039 ft 402 kts
2026-05-08 07:23 48.28490 8.97126 22039 ft 402 kts
2026-05-08 07:23 48.31275 8.97646 22042 ft 402 kts
2026-05-08 07:24 48.34032 8.98163 22045 ft 401 kts
2026-05-08 07:24 48.36826 8.98686 22048 ft 401 kts
2026-05-08 07:24 48.39581 8.99203 22048 ft 401 kts
2026-05-08 07:24 48.42358 8.99725 22042 ft 402 kts
2026-05-08 07:25 48.45127 9.00245 22054 ft 401 kts
2026-05-08 07:25 48.47893 9.00766 22051 ft 401 kts
2026-05-08 07:25 48.53381 9.01801 22060 ft 400 kts
2026-05-08 07:26 48.56157 9.02325 22062 ft 400 kts
2026-05-08 07:26 48.58910 9.02846 22062 ft 400 kts
2026-05-08 07:26 48.61661 9.03367 22066 ft 400 kts
2026-05-08 07:26 48.64407 9.03887 22064 ft 400 kts
2026-05-08 07:27 48.67197 9.04416 22064 ft 400 kts
2026-05-08 07:27 48.69942 9.04937 22059 ft 400 kts
2026-05-08 07:27 48.72703 9.05462 22061 ft 400 kts
2026-05-08 07:27 48.75466 9.05988 22062 ft 399 kts
2026-05-08 07:28 48.78205 9.06510 22066 ft 399 kts
2026-05-08 07:28 48.80976 9.07039 22063 ft 399 kts
2026-05-08 07:28 48.83695 9.07558 22059 ft 399 kts
2026-05-08 07:28 48.86468 9.08088 22063 ft 399 kts
2026-05-08 07:29 48.89202 9.08566 22067 ft 398 kts
2026-05-08 07:29 48.91978 9.08960 22065 ft 398 kts
2026-05-08 07:29 48.94723 9.09350 22064 ft 398 kts
2026-05-08 07:29 48.97457 9.09740 22065 ft 398 kts
2026-05-08 07:30 49.00211 9.10133 22066 ft 398 kts
2026-05-08 07:30 49.02980 9.10529 22067 ft 398 kts
2026-05-08 07:30 49.05706 9.10919 22066 ft 397 kts
2026-05-08 07:30 49.08467 9.11314 22068 ft 397 kts
2026-05-08 07:31 49.11247 9.11713 22071 ft 397 kts
2026-05-08 07:31 49.13892 9.12093 22072 ft 397 kts
2026-05-08 07:31 49.16656 9.12490 22072 ft 397 kts
2026-05-08 07:31 49.19371 9.12879 22077 ft 397 kts
2026-05-08 07:32 49.22126 9.13271 22076 ft 397 kts
2026-05-08 07:32 49.24886 9.13664 22077 ft 398 kts
2026-05-08 07:32 49.27652 9.14057 22081 ft 398 kts
2026-05-08 07:32 49.30384 9.14446 22082 ft 398 kts
2026-05-08 07:33 49.33160 9.14842 22083 ft 398 kts
2026-05-08 07:33 49.35881 9.15230 22081 ft 398 kts
2026-05-08 07:33 49.38661 9.15628 22079 ft 398 kts
2026-05-08 07:33 49.41405 9.16020 22079 ft 393 kts
2026-05-08 07:34 49.44070 9.16401 22075 ft 385 kts
2026-05-08 07:34 49.46740 9.16783 22079 ft 384 kts
2026-05-08 07:34 49.49403 9.17165 22080 ft 385 kts
2026-05-08 07:34 49.52063 9.17546 21888 ft 386 kts
2026-05-08 07:35 49.54740 9.17932 21479 ft 383 kts
2026-05-08 07:35 49.57372 9.18311 21060 ft 379 kts
2026-05-08 07:35 49.59963 9.18684 20649 ft 376 kts
2026-05-08 07:35 49.62558 9.19059 20239 ft 374 kts
2026-05-08 07:36 49.65113 9.18902 19837 ft 366 kts 342°
2026-05-08 07:36 49.67349 9.17188 19403 ft 360 kts 320°
2026-05-08 07:36 49.69217 9.14670 18991 ft 357 kts 316°
2026-05-08 07:36 49.71038 9.12064 18586 ft 354 kts 315°
2026-05-08 07:37 49.72827 9.09454 18200 ft 353 kts 315°
2026-05-08 07:37 49.74585 9.06870 17813 ft 352 kts 315°
2026-05-08 07:37 49.76350 9.04266 17426 ft 350 kts 315°
2026-05-08 07:37 49.78092 9.01692 17047 ft 349 kts 315°
2026-05-08 07:38 49.79846 8.99096 16663 ft 347 kts 315°
2026-05-08 07:38 49.81569 8.96542 16281 ft 346 kts 315°
2026-05-08 07:38 49.83314 8.93955 15897 ft 344 kts 315°
2026-05-08 07:38 49.85030 8.91407 15522 ft 343 kts 315°
2026-05-08 07:39 49.86742 8.88861 15143 ft 341 kts 315°
2026-05-08 07:39 49.88449 8.86322 14762 ft 339 kts 315°
2026-05-08 07:39 49.90129 8.83819 14399 ft 338 kts 315°
2026-05-08 07:39 49.91809 8.81314 14035 ft 337 kts 315°
2026-05-08 07:40 49.93495 8.78798 13659 ft 335 kts 315°
2026-05-08 07:40 49.95173 8.76291 13290 ft 334 kts 315°
2026-05-08 07:40 49.96692 8.73647 12916 ft 330 kts 299°
2026-05-08 07:40 49.97322 8.70265 12588 ft 329 kts 272°
2026-05-08 07:41 49.96952 8.66830 12116 ft 325 kts 252°
2026-05-08 07:41 49.96224 8.63497 11727 ft 321 kts 251°
2026-05-08 07:41 49.95483 8.60299 11366 ft 314 kts 250°
2026-05-08 07:41 49.94736 8.57147 11021 ft 307 kts 250°
2026-05-08 07:42 49.94012 8.54125 10688 ft 300 kts 250°
2026-05-08 07:42 49.93287 8.51116 10361 ft 292 kts 250°
2026-05-08 07:42 49.92585 8.48204 10117 ft 283 kts 250°
2026-05-08 07:42 49.91899 8.45358 10116 ft 282 kts 250°
2026-05-08 07:43 49.91220 8.42540 10101 ft 283 kts 250°
2026-05-08 07:43 49.90524 8.39660 9856 ft 285 kts 250°
2026-05-08 07:43 49.89829 8.36786 9600 ft 283 kts 250°
2026-05-08 07:43 49.89139 8.33936 9338 ft 282 kts 249°
2026-05-08 07:44 49.88464 8.31150 8622 ft 281 kts 249°
2026-05-08 07:44 49.87783 8.28347 7852 ft 277 kts 249°
2026-05-08 07:44 49.87115 8.25597 7076 ft 270 kts 249°
2026-05-08 07:44 49.86461 8.22914 6304 ft 264 kts 249°
2026-05-08 07:45 49.85834 8.20335 5874 ft 247 kts 250°
2026-05-08 07:45 49.85728 8.17827 5506 ft 237 kts 288°
2026-05-08 07:45 49.86674 8.15786 5262 ft 237 kts 326°
2026-05-08 07:45 49.88086 8.14504 5010 ft 235 kts 332°
2026-05-08 07:46 49.89525 8.13295 4969 ft 233 kts 332°
2026-05-08 07:46 49.91017 8.12354 4965 ft 232 kts 348°
2026-05-08 07:46 49.92608 8.12115 4975 ft 233 kts 358°
2026-05-08 07:46 49.94237 8.12045 4963 ft 233 kts
2026-05-08 07:47 49.95664 8.13095 4981 ft 231 kts 47°
2026-05-08 07:47 49.96315 8.15334 4988 ft 231 kts 86°
2026-05-08 07:47 49.96410 8.17807 4911 ft 234 kts 81°
2026-05-08 07:47 49.96750 8.20253 4622 ft 233 kts 74°
2026-05-08 07:48 49.97223 8.22642 4307 ft 230 kts 71°
2026-05-08 07:48 49.97746 8.24967 3984 ft 227 kts 70°
2026-05-08 07:48 49.98282 8.27234 3707 ft 215 kts 69°
2026-05-08 07:48 49.98773 8.29274 3379 ft 193 kts 69°
2026-05-08 07:49 49.99220 8.31120 3091 ft 178 kts 69°
2026-05-08 07:49 49.99655 8.32916 2826 ft 177 kts 69°
2026-05-08 07:49 50.00090 8.34711 2568 ft 178 kts 69°
2026-05-08 07:49 50.00523 8.36501 2305 ft 174 kts 69°
2026-05-08 07:50 50.00933 8.38197 2098 ft 163 kts 69°
2026-05-08 07:50 50.01311 8.39764 1834 ft 146 kts 69°
2026-05-08 07:50 50.01649 8.41164 1609 ft 132 kts 69°
2026-05-08 07:50 50.01956 8.42436 1419 ft 124 kts 69°
2026-05-08 07:51 50.02258 8.43688 1257 ft 124 kts 69°
2026-05-08 07:51 50.02564 8.44960 1085 ft 126 kts 69°
2026-05-08 07:51 50.02873 8.46243 905 ft 126 kts 69°
2026-05-08 07:51 50.03177 8.47510 725 ft 126 kts 69°
2026-05-08 07:52 50.03481 8.48784 553 ft 126 kts 68°
2026-05-08 07:52 50.03794 8.50065 370 ft 125 kts 70°
2026-05-08 07:52 50.04050 8.51140 369 ft 88 kts 69°
2026-05-08 07:52 50.04247 8.51965 369 ft 76 kts 69°
2026-05-08 07:53 50.04420 8.52686 369 ft 66 kts 69°
2026-05-08 07:53 50.04537 8.53177 369 ft 22 kts 69°
2026-05-08 07:53 50.04534 8.53345 369 ft 15 kts 129°
2026-05-08 07:53 50.04448 8.53425 375 ft 11 kts 153°
2026-05-08 07:54 50.04406 8.53470 380 ft 6 kts 127°
2026-05-08 07:54 50.04395 8.53521 384 ft 3 kts 95°
2026-05-08 07:54 50.04396 8.53563 387 ft 4 kts 83°
2026-05-08 07:54 50.04401 8.53636 389 ft 9 kts 83°
2026-05-08 07:55 50.04411 8.53787 389 ft 18 kts 84°
2026-05-08 07:55 50.04427 8.54025 389 ft 26 kts 84°
2026-05-08 07:55 50.04447 8.54327 389 ft 25 kts 84°
2026-05-08 07:55 50.04439 8.54530 385 ft 17 kts 108°
2026-05-08 07:56 50.04366 8.54706 371 ft 20 kts 139°
2026-05-08 07:56 50.04233 8.54815 369 ft 22 kts 161°
2026-05-08 07:56 50.04087 8.54896 369 ft 21 kts 159°
2026-05-08 07:56 50.04008 8.54917 369 ft 9 kts 206°
2026-05-08 07:57 50.03967 8.54798 369 ft 16 kts 249°
2026-05-08 07:57 50.03945 8.54703 369 ft 10 kts 249°
2026-05-08 07:57 50.03910 8.54561 369 ft 17 kts 249°
2026-05-08 07:57 50.03865 8.54380 369 ft 13 kts 251°
2026-05-08 07:58 50.03888 8.54285 369 ft 6 kts 334°
2026-05-08 07:58 50.03908 8.54260 369 ft 3 kts 289°
2026-05-08 07:58 50.03902 8.54214 369 ft 4 kts 249°
2026-05-08 07:58 50.03889 8.54160 369 ft 5 kts 249°
2026-05-08 07:59 50.03881 8.54126 369 ft 0 kts 249°